Location: Gwatt
(46.7204°N, 7.6223°E)
Time: 13:52:15
(UTC+00:00)

S-56A Canister/Altair - Pass Details

Date: 30 January 2021
Orbit: 632 x 2501 km, 38.9° (Epoch: 28 February)

Event Time Altitude Azimuth Distance (km) Brightness Sun altitude
Rises 23:14:14 0° 223° (SW) 3,926 - -60.1°
Reaches altitude 10° 23:17:57 10° 209° (SSW) 2,663 - -60.2°
Maximum altitude 23:22:21 21° 162° (SSE) 1,711 - -60.4°
Drops below altitude 10° 23:26:00 10° 113° (ESE) 2,150 - -60.5°
Sets 23:28:37 0° 96° (E) 2,968 - -60.5°
